UAE1GP OMDB-LFMN

Flight info

Callsign UAE1GP
Flight time N/A
Altitude 34000
Route ANVIX R401 GIDIS G783 RIGIL/N0510F320 G783 TANSU/N0509F280 G783 ASNUR L883 PUSON/N0505F340 L883 KITUB Y511 ELONU G799 PMA V10 PEGUR Z712 WEJ/N0493F360 L677 CVO L617 NABSI M872 METRU DCT LORNO DCT SOMAS/N0481F380 DCT PNZ DCT GILIO DCT TOBGA/N0502F300 DCT DOBIM DCT AKUTI R16 KERIT
Aircraft B77W/H-SDE1E2E3FGHIJ2J3J4J5M1RWXY/LB1D1

Departure

Time 2026-04-30 09:09
Airport Dubai International Airport (OMDB)

Arrival

Time N/A
Airport Nice-Côte d'Azur Airport (LFMN)
Time Latitude Longitude Altitude Speed Heading
2026-04-30 08:29 25.24623 55.36366 30 ft 0 kts 31°
2026-04-30 08:55 25.24605 55.36354 31 ft 4 kts 31°
2026-04-30 08:55 25.24583 55.36339 30 ft 2 kts 31°
2026-04-30 08:55 25.24566 55.36325 31 ft 4 kts 66°
2026-04-30 08:56 25.24565 55.36299 31 ft 4 kts 116°
2026-04-30 08:56 25.24578 55.36275 31 ft 4 kts 122°
2026-04-30 08:56 25.24590 55.36254 31 ft 0 kts 122°
2026-04-30 08:59 25.24589 55.36255 31 ft 1 kts 122°
2026-04-30 08:59 25.24582 55.36268 31 ft 3 kts 122°
2026-04-30 09:00 25.24565 55.36298 30 ft 6 kts 122°
2026-04-30 09:00 25.24540 55.36342 29 ft 8 kts 121°
2026-04-30 09:00 25.24507 55.36402 30 ft 10 kts 122°
2026-04-30 09:00 25.24467 55.36473 28 ft 11 kts 121°
2026-04-30 09:01 25.24447 55.36555 30 ft 11 kts 89°
2026-04-30 09:01 25.24470 55.36637 30 ft 11 kts 57°
2026-04-30 09:01 25.24529 55.36694 30 ft 11 kts 31°
2026-04-30 09:01 25.24596 55.36740 30 ft 11 kts 30°
2026-04-30 09:02 25.24726 55.36826 29 ft 8 kts 40°
2026-04-30 09:02 25.24729 55.36884 30 ft 8 kts 112°
2026-04-30 09:02 25.24702 55.36938 29 ft 8 kts 121°
2026-04-30 09:03 25.24672 55.36992 29 ft 8 kts 122°
2026-04-30 09:03 25.24642 55.37045 29 ft 8 kts 122°
2026-04-30 09:03 25.24608 55.37106 31 ft 12 kts 122°
2026-04-30 09:03 25.24553 55.37204 30 ft 17 kts 121°
2026-04-30 09:04 25.24499 55.37300 29 ft 14 kts 122°
2026-04-30 09:04 25.24447 55.37394 31 ft 14 kts 122°
2026-04-30 09:04 25.24394 55.37488 31 ft 14 kts 122°
2026-04-30 09:04 25.24341 55.37581 30 ft 14 kts 122°
2026-04-30 09:05 25.24288 55.37675 29 ft 14 kts 122°
2026-04-30 09:05 25.24258 55.37740 27 ft 8 kts 97°
2026-04-30 09:05 25.24270 55.37775 28 ft 8 kts 51°
2026-04-30 09:05 25.24329 55.37821 26 ft 8 kts 35°
2026-04-30 09:06 25.24374 55.37854 27 ft 8 kts 34°
2026-04-30 09:06 25.24403 55.37876 28 ft 8 kts 34°
2026-04-30 09:06 25.24455 55.37916 29 ft 12 kts 35°
2026-04-30 09:06 25.24545 55.37984 28 ft 17 kts 34°
2026-04-30 09:07 25.24648 55.38057 28 ft 13 kts 32°
2026-04-30 09:07 25.24700 55.38094 30 ft 13 kts 32°
2026-04-30 09:07 25.24755 55.38107 31 ft 8 kts 336°
2026-04-30 09:07 25.24788 55.38059 30 ft 8 kts 301°
2026-04-30 09:08 25.24836 55.37971 30 ft 26 kts 302°
2026-04-30 09:08 25.25041 55.37603 31 ft 88 kts 301°
2026-04-30 09:08 25.25466 55.36837 29 ft 144 kts 301°
2026-04-30 09:08 25.26070 55.35747 49 ft 183 kts 302°
2026-04-30 09:09 25.26718 55.34570 520 ft 180 kts 303°
2026-04-30 09:09 25.27398 55.33345 839 ft 193 kts 301°
2026-04-30 09:09 25.28089 55.32085 1456 ft 188 kts 302°
2026-04-30 09:09 25.28763 55.30867 2083 ft 187 kts 304°
2026-04-30 09:10 25.29284 55.29560 2581 ft 189 kts 276°
2026-04-30 09:10 25.28984 55.28172 3081 ft 192 kts 252°
2026-04-30 09:10 25.28417 55.26813 3451 ft 196 kts 251°
2026-04-30 09:10 25.27840 55.25430 3957 ft 196 kts 250°
2026-04-30 09:11 25.27256 55.24051 4399 ft 199 kts 249°
2026-04-30 09:11 25.26664 55.22656 4824 ft 202 kts 249°
2026-04-30 09:11 25.26071 55.21261 5197 ft 208 kts 248°
2026-04-30 09:11 25.25428 55.19744 5358 ft 226 kts 247°
2026-04-30 09:12 25.24718 55.18149 5698 ft 236 kts 239°
2026-04-30 09:12 25.23463 55.16930 6042 ft 250 kts 204°
2026-04-30 09:12 25.21722 55.16682 6480 ft 257 kts 179°
2026-04-30 09:12 25.19918 55.16884 6870 ft 263 kts 169°
2026-04-30 09:13 25.18259 55.17835 7141 ft 281 kts 134°
2026-04-30 09:13 25.17177 55.19669 7398 ft 292 kts 117°
2026-04-30 09:13 25.16263 55.21684 7839 ft 300 kts 118°
2026-04-30 09:13 25.15291 55.23751 8442 ft 304 kts 120°
2026-04-30 09:14 25.14301 55.25824 9039 ft 307 kts 121°
2026-04-30 09:14 25.13293 55.27932 9600 ft 313 kts 121°
2026-04-30 09:14 25.12264 55.30076 10156 ft 316 kts 121°
2026-04-30 09:14 25.11230 55.32228 10752 ft 319 kts 121°
2026-04-30 09:15 25.10216 55.34418 11400 ft 322 kts 118°
2026-04-30 09:15 25.09293 55.36670 12073 ft 326 kts 117°
2026-04-30 09:15 25.08369 55.38966 12770 ft 329 kts 117°
2026-04-30 09:15 25.07424 55.41283 13495 ft 332 kts 117°
2026-04-30 09:16 25.06495 55.43628 14000 ft 345 kts 116°
2026-04-30 09:16 25.05522 55.46166 14148 ft 369 kts 115°
2026-04-30 09:16 25.04498 55.48854 14320 ft 391 kts 115°
2026-04-30 09:16 25.03419 55.51666 14470 ft 412 kts 115°
2026-04-30 09:17 25.02279 55.54625 14859 ft 424 kts 115°
2026-04-30 09:17 25.00998 55.57584 15372 ft 429 kts 122°
2026-04-30 09:17 24.99448 55.60417 16002 ft 432 kts 126°
2026-04-30 09:17 24.97824 55.63212 16690 ft 435 kts 126°
2026-04-30 09:18 24.96238 55.66028 17372 ft 439 kts 124°
2026-04-30 09:18 24.94653 55.68933 18021 ft 444 kts 124°
2026-04-30 09:18 24.93009 55.71825 18587 ft 446 kts 128°
2026-04-30 09:18 24.91183 55.74604 19139 ft 449 kts 131°
2026-04-30 09:19 24.89271 55.77365 19684 ft 453 kts 132°
2026-04-30 09:19 24.87380 55.80117 20186 ft 459 kts 131°
2026-04-30 09:19 24.85468 55.82970 20711 ft 464 kts 131°
2026-04-30 09:19 24.83553 55.85857 21258 ft 468 kts 131°
2026-04-30 09:20 24.81603 55.88763 21786 ft 469 kts 132°
2026-04-30 09:20 24.79387 55.91287 22083 ft 462 kts 150°
2026-04-30 09:20 24.76571 55.92897 22524 ft 453 kts 167°
2026-04-30 09:20 24.73524 55.93705 22900 ft 446 kts 180°
2026-04-30 09:21 24.70446 55.93714 23502 ft 438 kts 189°
2026-04-30 09:21 24.67391 55.93517 23875 ft 443 kts 188°
2026-04-30 09:21 24.64350 55.93382 24360 ft 440 kts 189°
2026-04-30 09:21 24.61342 55.92793 24601 ft 438 kts 202°
2026-04-30 09:22 24.58544 55.91483 24862 ft 437 kts 212°
2026-04-30 09:22 24.56012 55.89642 25261 ft 433 kts 223°
2026-04-30 09:22 24.53766 55.87437 25625 ft 434 kts 225°
2026-04-30 09:22 24.51539 55.85231 25977 ft 437 kts 224°
2026-04-30 09:23 24.49259 55.82997 26338 ft 441 kts 224°
2026-04-30 09:23 24.46952 55.80761 26699 ft 444 kts 224°
2026-04-30 09:23 24.44615 55.78513 27043 ft 446 kts 224°
2026-04-30 09:23 24.42268 55.76262 27394 ft 449 kts 223°
2026-04-30 09:24 24.39903 55.73996 27734 ft 452 kts 223°
2026-04-30 09:24 24.37532 55.71724 28037 ft 454 kts 223°
2026-04-30 09:24 24.35147 55.69429 28338 ft 457 kts 223°
2026-04-30 09:24 24.32753 55.67117 28627 ft 459 kts 223°
2026-04-30 09:25 24.30381 55.64828 28904 ft 461 kts 223°
2026-04-30 09:25 24.27798 55.62687 29113 ft 467 kts 215°
2026-04-30 09:25 24.24970 55.60933 29268 ft 473 kts 209°
2026-04-30 09:25 24.21944 55.59441 29512 ft 477 kts 204°
2026-04-30 09:26 24.18767 55.58330 29765 ft 482 kts 198°
2026-04-30 09:26 24.15507 55.57406 29991 ft 483 kts 198°
2026-04-30 09:26 24.12239 55.56490 30243 ft 483 kts 198°
2026-04-30 09:26 24.09023 55.55571 30544 ft 481 kts 198°
2026-04-30 09:27 24.05791 55.54625 30858 ft 479 kts 199°
2026-04-30 09:27 24.02572 55.53671 31168 ft 478 kts 199°
2026-04-30 09:27 23.99358 55.52716 31443 ft 478 kts 199°
2026-04-30 09:27 23.96144 55.51759 31736 ft 477 kts 199°
2026-04-30 09:28 23.92947 55.50806 32034 ft 476 kts 199°
2026-04-30 09:28 23.89787 55.49865 32322 ft 475 kts 199°
2026-04-30 09:28 23.86599 55.48917 32609 ft 474 kts 199°
2026-04-30 09:28 23.83412 55.47969 32911 ft 474 kts 199°
2026-04-30 09:29 23.80235 55.47023 33196 ft 473 kts 199°
2026-04-30 09:29 23.77058 55.46076 33497 ft 472 kts 199°
2026-04-30 09:29 23.73885 55.45130 33752 ft 472 kts 199°
2026-04-30 09:29 23.70748 55.44194 33775 ft 475 kts 199°
2026-04-30 09:30 23.64369 55.42296 33823 ft 472 kts 199°
2026-04-30 09:30 23.58028 55.40411 33830 ft 470 kts 199°
2026-04-30 09:31 23.51761 55.38549 33841 ft 468 kts 199°
2026-04-30 09:31 23.45453 55.36687 33833 ft 468 kts 198°
2026-04-30 09:32 23.39173 55.34841 33827 ft 469 kts 198°
2026-04-30 09:32 23.32895 55.32997 33831 ft 470 kts 198°
2026-04-30 09:33 23.26548 55.31133 33827 ft 471 kts 198°
2026-04-30 09:33 23.20207 55.29271 33820 ft 472 kts 198°
2026-04-30 09:34 23.13890 55.27418 33815 ft 472 kts 198°
2026-04-30 09:34 23.07579 55.25534 33801 ft 468 kts 202°
2026-04-30 09:35 23.04696 55.23938 33811 ft 463 kts 218°
2026-04-30 09:35 23.02297 55.21606 33822 ft 462 kts 229°
2026-04-30 09:35 23.00411 55.18841 33825 ft 461 kts 242°
2026-04-30 09:35 22.99028 55.15712 33817 ft 461 kts 245°
2026-04-30 09:36 22.96365 55.09339 33821 ft 465 kts 245°
2026-04-30 09:36 22.93638 55.02938 33817 ft 468 kts 244°
2026-04-30 09:37 22.90850 54.96516 33819 ft 470 kts 244°
2026-04-30 09:37 22.88067 54.90151 33806 ft 469 kts 244°
2026-04-30 09:38 22.85268 54.83757 33801 ft 467 kts 244°
2026-04-30 09:38 22.82499 54.77435 33804 ft 465 kts 244°
2026-04-30 09:39 22.79721 54.71101 33807 ft 464 kts 244°
2026-04-30 09:39 22.76949 54.64785 33811 ft 463 kts 244°
2026-04-30 09:40 22.74193 54.58515 33806 ft 464 kts 244°
2026-04-30 09:40 22.71407 54.52185 33811 ft 464 kts 244°
2026-04-30 09:41 22.68619 54.45859 33799 ft 465 kts 244°
2026-04-30 09:41 22.65838 54.39567 33817 ft 466 kts 244°
2026-04-30 09:42 22.63029 54.33218 33805 ft 467 kts 244°
2026-04-30 09:42 22.60220 54.26874 33812 ft 469 kts 244°
2026-04-30 09:43 22.57395 54.20493 33808 ft 470 kts 244°
2026-04-30 09:43 22.54568 54.14104 33812 ft 471 kts 244°
2026-04-30 09:44 22.51747 54.07735 33811 ft 471 kts 244°
2026-04-30 09:44 22.48907 54.01333 33811 ft 471 kts 244°
2026-04-30 09:45 22.46080 53.94967 33801 ft 471 kts 244°
2026-04-30 09:45 22.43236 53.88573 33804 ft 471 kts 244°
2026-04-30 09:46 22.40393 53.82189 33806 ft 470 kts 244°
2026-04-30 09:46 22.37570 53.75856 33813 ft 470 kts 244°
2026-04-30 09:47 22.34724 53.69482 33802 ft 470 kts 244°
2026-04-30 09:47 22.31896 53.63153 33806 ft 470 kts 244°
2026-04-30 09:48 22.29041 53.56779 33808 ft 470 kts 244°
2026-04-30 09:48 22.26181 53.50414 33807 ft 470 kts 244°
2026-04-30 09:49 22.23337 53.44091 33799 ft 470 kts 244°
2026-04-30 09:49 22.20471 53.37723 33807 ft 470 kts 244°
2026-04-30 09:50 22.17619 53.31395 33797 ft 471 kts 244°
2026-04-30 09:50 22.14744 53.25022 33807 ft 471 kts 244°
2026-04-30 09:51 22.11887 53.18697 33800 ft 471 kts 244°
2026-04-30 09:51 22.09010 53.12337 33807 ft 471 kts 244°
2026-04-30 09:52 22.06121 53.05959 33797 ft 472 kts 244°
2026-04-30 09:52 22.03249 52.99625 33805 ft 472 kts 244°
2026-04-30 09:53 22.00357 52.93254 33794 ft 473 kts 244°
2026-04-30 09:53 21.97473 52.86908 33800 ft 474 kts 244°
2026-04-30 09:54 21.94570 52.80531 33800 ft 475 kts 244°
2026-04-30 09:54 21.92148 52.75212 33800 ft 475 kts 244°
2026-04-30 09:55 21.89237 52.68831 33800 ft 476 kts 244°
2026-04-30 09:55 21.86308 52.62425 33803 ft 476 kts 244°
2026-04-30 09:56 21.83390 52.56050 33792 ft 476 kts 244°
2026-04-30 09:56 21.80459 52.49649 33801 ft 475 kts 244°
2026-04-30 09:57 21.77542 52.43286 33793 ft 475 kts 244°
2026-04-30 09:57 21.74615 52.36914 33795 ft 474 kts 244°
2026-04-30 09:58 21.71677 52.30545 33791 ft 474 kts 244°
2026-04-30 09:58 21.68754 52.24217 33795 ft 474 kts 244°
2026-04-30 09:59 21.62873 52.11499 33796 ft 474 kts 244°
2026-04-30 10:00 21.58471 52.02000 33793 ft 474 kts 244°
2026-04-30 10:01 21.54067 51.92513 33795 ft 474 kts 244°
2026-04-30 10:02 21.49641 51.82992 33782 ft 473 kts 244°
2026-04-30 10:02 21.46768 51.76683 33780 ft 472 kts 249°
2026-04-30 10:03 21.45179 51.69873 33791 ft 471 kts 262°
2026-04-30 10:03 21.45064 51.62865 33799 ft 472 kts 272°
2026-04-30 10:04 21.45416 51.55800 33793 ft 473 kts 272°
2026-04-30 10:04 21.45719 51.48772 33795 ft 473 kts 271°
2026-04-30 10:05 21.45984 51.41741 33794 ft 473 kts 271°
2026-04-30 10:05 21.46246 51.34667 33789 ft 473 kts 271°
2026-04-30 10:06 21.46502 51.27590 33806 ft 473 kts 271°
2026-04-30 10:06 21.46748 51.20562 33795 ft 472 kts 271°
2026-04-30 10:07 21.46991 51.13516 33800 ft 471 kts 271°
2026-04-30 10:07 21.47232 51.06473 33801 ft 471 kts 271°
2026-04-30 10:08 21.47470 50.99464 33797 ft 471 kts 271°
2026-04-30 10:08 21.47706 50.92429 33808 ft 470 kts 271°
2026-04-30 10:09 21.47937 50.85457 33806 ft 470 kts 270°
2026-04-30 10:09 21.48166 50.78434 33801 ft 469 kts 270°
2026-04-30 10:10 21.48392 50.71418 33796 ft 469 kts 270°
2026-04-30 10:10 21.48613 50.64457 33796 ft 468 kts 270°
2026-04-30 10:11 21.48833 50.57462 33810 ft 468 kts 270°
2026-04-30 10:11 21.49050 50.50462 33810 ft 468 kts 270°
2026-04-30 10:12 21.49263 50.43488 33815 ft 469 kts 270°
2026-04-30 10:12 21.49474 50.36486 33802 ft 469 kts 270°
2026-04-30 10:13 21.49682 50.29478 33816 ft 469 kts 270°
2026-04-30 10:13 21.49887 50.22511 33818 ft 470 kts 270°
2026-04-30 10:14 21.50090 50.15498 33811 ft 470 kts 270°
2026-04-30 10:14 21.51575 50.05075 33815 ft 473 kts 283°
2026-04-30 10:15 21.53810 49.98403 33820 ft 474 kts 289°
2026-04-30 10:15 21.56285 49.91877 33817 ft 474 kts 289°
2026-04-30 10:16 21.58765 49.85307 33818 ft 473 kts 289°
2026-04-30 10:17 21.62434 49.75437 33808 ft 473 kts 288°
2026-04-30 10:17 21.66065 49.65610 33814 ft 472 kts 288°
2026-04-30 10:18 21.68487 49.59045 33817 ft 472 kts 288°
2026-04-30 10:19 21.72106 49.49224 33818 ft 472 kts 288°
2026-04-30 10:19 21.74513 49.42680 33829 ft 472 kts 288°
2026-04-30 10:20 21.76927 49.36108 33830 ft 472 kts 288°
2026-04-30 10:20 21.80547 49.26235 33829 ft 471 kts 288°
2026-04-30 10:21 21.82939 49.19699 33826 ft 471 kts 288°
2026-04-30 10:21 21.85342 49.13124 33824 ft 471 kts 287°
2026-04-30 10:22 21.87722 49.06603 33814 ft 470 kts 287°
2026-04-30 10:22 21.90117 49.00031 33835 ft 470 kts 287°
2026-04-30 10:23 21.92509 48.93458 33843 ft 470 kts 287°
2026-04-30 10:23 21.94880 48.86933 33821 ft 470 kts 287°
2026-04-30 10:24 21.97263 48.80367 33830 ft 470 kts 287°
2026-04-30 10:24 21.99645 48.73796 33828 ft 469 kts 287°
2026-04-30 10:25 22.02001 48.67282 33828 ft 469 kts 287°
2026-04-30 10:25 22.04375 48.60713 33835 ft 468 kts 287°
2026-04-30 10:26 22.06722 48.54207 33825 ft 468 kts 287°
2026-04-30 10:26 22.09081 48.47658 33832 ft 467 kts 287°
2026-04-30 10:27 22.11436 48.41115 33833 ft 467 kts 287°
2026-04-30 10:27 22.13774 48.34606 33835 ft 467 kts 287°
2026-04-30 10:28 22.16123 48.28053 33835 ft 467 kts 287°
2026-04-30 10:28 22.18462 48.21518 33852 ft 467 kts 287°
2026-04-30 10:29 22.20788 48.15013 33838 ft 467 kts 287°
2026-04-30 10:29 22.23124 48.08468 33838 ft 466 kts 287°
2026-04-30 10:30 22.25442 48.01965 33841 ft 465 kts 287°
2026-04-30 10:30 22.27767 47.95431 33842 ft 465 kts 287°
2026-04-30 10:31 22.30076 47.88935 33845 ft 465 kts 287°
2026-04-30 10:31 22.32390 47.82414 33854 ft 464 kts 287°
2026-04-30 10:32 22.34705 47.75881 33846 ft 464 kts 287°
2026-04-30 10:32 22.36996 47.69405 33845 ft 463 kts 287°
2026-04-30 10:33 22.39297 47.62893 33851 ft 463 kts 287°
2026-04-30 10:33 22.41601 47.56362 33853 ft 463 kts 287°
2026-04-30 10:34 22.43879 47.49896 33865 ft 463 kts 287°
2026-04-30 10:34 22.46166 47.43392 33857 ft 462 kts 287°
2026-04-30 10:35 22.48454 47.36880 33859 ft 462 kts 287°
2026-04-30 10:35 22.50723 47.30411 33858 ft 461 kts 287°
2026-04-30 10:36 22.53001 47.23913 33857 ft 461 kts 287°
2026-04-30 10:36 22.55263 47.17456 33865 ft 461 kts 287°
2026-04-30 10:37 22.57538 47.10955 33877 ft 460 kts 287°
2026-04-30 10:37 22.59790 47.04505 33875 ft 460 kts 287°
2026-04-30 10:38 22.62054 46.98011 33878 ft 460 kts 286°
2026-04-30 10:38 22.64300 46.91557 33884 ft 460 kts 287°
2026-04-30 10:39 22.66562 46.85052 33885 ft 460 kts 287°
2026-04-30 10:39 22.68805 46.78590 33906 ft 460 kts 286°
2026-04-30 10:40 22.71053 46.72103 33889 ft 460 kts 286°
2026-04-30 10:40 22.73289 46.65641 33894 ft 459 kts 286°
2026-04-30 10:41 22.75157 46.60235 33898 ft 459 kts 286°
2026-04-30 10:41 22.77760 46.52691 33896 ft 459 kts 286°
2026-04-30 10:42 22.79631 46.47263 33906 ft 458 kts 286°
2026-04-30 10:42 22.81662 46.40765 33909 ft 455 kts 280°
2026-04-30 10:43 22.82765 46.34028 33906 ft 451 kts 271°
2026-04-30 10:43 22.83235 46.27303 33908 ft 450 kts 271°
2026-04-30 10:44 22.83708 46.20505 33902 ft 450 kts 271°
2026-04-30 10:44 22.84191 46.13769 33897 ft 451 kts 271°
2026-04-30 10:45 22.84684 46.06961 33895 ft 452 kts 271°
2026-04-30 10:45 22.85173 46.00195 33887 ft 452 kts 271°
2026-04-30 10:46 22.85661 45.93410 33888 ft 453 kts 271°
2026-04-30 10:46 22.86148 45.86577 33892 ft 452 kts 271°
2026-04-30 10:47 22.86627 45.79821 33881 ft 452 kts 271°
2026-04-30 10:47 22.87107 45.73013 33882 ft 451 kts 271°
2026-04-30 10:48 22.87579 45.66271 33885 ft 450 kts 271°
2026-04-30 10:48 22.88051 45.59495 33886 ft 450 kts 271°
2026-04-30 10:49 22.88520 45.52701 33883 ft 450 kts 271°
2026-04-30 10:49 22.88983 45.45966 33889 ft 450 kts 271°
2026-04-30 10:50 22.89446 45.39191 33886 ft 450 kts 271°
2026-04-30 10:50 22.89906 45.32412 33891 ft 450 kts 271°
2026-04-30 10:51 22.90363 45.25651 33883 ft 449 kts 271°
2026-04-30 10:51 22.90813 45.18932 33876 ft 448 kts 271°
2026-04-30 10:52 22.91263 45.12190 33881 ft 447 kts 271°
2026-04-30 10:52 22.91705 45.05503 33879 ft 446 kts 271°
2026-04-30 10:53 22.92149 44.98773 33888 ft 446 kts 271°
2026-04-30 10:53 22.92591 44.92028 33881 ft 447 kts 271°
2026-04-30 10:54 22.93027 44.85330 33882 ft 448 kts 271°
2026-04-30 10:54 22.93464 44.78580 33886 ft 449 kts 271°
2026-04-30 10:55 22.93901 44.71806 33887 ft 449 kts 271°
2026-04-30 10:55 22.94897 44.65130 33894 ft 453 kts 279°
2026-04-30 10:56 22.96786 44.58564 33902 ft 456 kts 284°
2026-04-30 10:56 22.98838 44.52041 33895 ft 455 kts 284°
2026-04-30 10:57 23.00858 44.45558 33893 ft 455 kts 284°
2026-04-30 10:57 23.02871 44.39035 33903 ft 455 kts 284°
2026-04-30 10:58 23.04864 44.32553 33896 ft 455 kts 283°
2026-04-30 10:58 23.06866 44.26031 33899 ft 454 kts 283°
2026-04-30 10:59 23.08867 44.19503 33903 ft 454 kts 283°
2026-04-30 10:59 23.10855 44.13005 33901 ft 454 kts 283°
2026-04-30 11:00 23.12839 44.06514 33895 ft 455 kts 283°
2026-04-30 11:00 23.14833 43.99978 33928 ft 454 kts 283°
2026-04-30 11:01 23.16824 43.93444 33919 ft 454 kts 283°
2026-04-30 11:01 23.18791 43.86971 33920 ft 453 kts 283°
2026-04-30 11:02 23.20767 43.80463 33938 ft 452 kts 283°
2026-04-30 11:02 23.22733 43.73974 33937 ft 452 kts 283°
2026-04-30 11:03 23.24686 43.67521 33940 ft 451 kts 283°
2026-04-30 11:04 23.27620 43.57803 33961 ft 450 kts 283°
2026-04-30 11:04 23.29567 43.51336 33954 ft 448 kts 283°
2026-04-30 11:05 23.31488 43.44938 33962 ft 447 kts 283°
2026-04-30 11:05 23.33419 43.38492 33977 ft 447 kts 283°
2026-04-30 11:06 23.35348 43.32047 33972 ft 447 kts 283°
2026-04-30 11:06 23.37257 43.25657 33985 ft 446 kts 283°
2026-04-30 11:07 23.39178 43.19213 33985 ft 446 kts 283°
2026-04-30 11:07 23.41086 43.12806 33992 ft 446 kts 283°
2026-04-30 11:08 23.42993 43.06361 33998 ft 446 kts 283°
2026-04-30 11:08 23.44880 42.99962 34003 ft 446 kts 283°
2026-04-30 11:09 23.46782 42.93508 33999 ft 446 kts 283°
2026-04-30 11:09 23.48672 42.87083 33994 ft 446 kts 283°
2026-04-30 11:10 23.50567 42.80630 33993 ft 446 kts 283°
2026-04-30 11:10 23.52446 42.74226 33996 ft 446 kts 283°
2026-04-30 11:11 23.54352 42.67770 33992 ft 446 kts 283°
2026-04-30 11:11 23.56244 42.61367 34011 ft 446 kts 283°
2026-04-30 11:12 23.58135 42.54948 34003 ft 446 kts 283°
2026-04-30 11:12 23.60029 42.48506 33998 ft 445 kts 283°
2026-04-30 11:13 23.61907 42.42106 33986 ft 445 kts 283°
2026-04-30 11:13 23.63796 42.35657 33993 ft 445 kts 283°
2026-04-30 11:14 23.65676 42.29230 34004 ft 444 kts 283°
2026-04-30 11:14 23.67532 42.22821 34101 ft 445 kts 283°
2026-04-30 11:14 23.68457 42.19607 34368 ft 443 kts 283°
2026-04-30 11:15 23.69375 42.16413 34686 ft 439 kts 283°
2026-04-30 11:15 23.70288 42.13238 34974 ft 437 kts 283°
2026-04-30 11:15 23.71199 42.10067 35207 ft 437 kts 283°
2026-04-30 11:15 23.72096 42.06940 35386 ft 437 kts 283°
2026-04-30 11:16 23.73008 42.03759 35581 ft 437 kts 283°
2026-04-30 11:16 23.73919 42.00582 35792 ft 437 kts 283°
2026-04-30 11:16 23.74831 41.97407 35919 ft 438 kts 283°
2026-04-30 11:17 23.76669 41.91084 35983 ft 439 kts 283°
2026-04-30 11:17 23.78518 41.84736 35988 ft 437 kts 283°
2026-04-30 11:18 23.80354 41.78401 35993 ft 436 kts 283°
2026-04-30 11:18 23.83068 41.68974 35991 ft 434 kts 283°
2026-04-30 11:19 23.84878 41.62662 35991 ft 434 kts 283°
2026-04-30 11:19 23.86674 41.56397 35990 ft 434 kts 283°
2026-04-30 11:20 23.88478 41.50081 35995 ft 435 kts 283°
2026-04-30 11:20 23.90279 41.43760 35990 ft 435 kts 283°
2026-04-30 11:21 23.92068 41.37476 35985 ft 435 kts 283°
2026-04-30 11:21 23.93867 41.31142 36000 ft 435 kts 283°
2026-04-30 11:22 23.95651 41.24849 35986 ft 435 kts 283°
2026-04-30 11:22 23.97442 41.18522 35986 ft 434 kts 283°
2026-04-30 11:23 23.99226 41.12203 36003 ft 434 kts 283°
2026-04-30 11:24 24.01885 41.02767 35989 ft 433 kts 283°
2026-04-30 11:24 24.03660 40.96459 35979 ft 433 kts 283°
2026-04-30 11:25 24.06298 40.87052 35992 ft 432 kts 283°
2026-04-30 11:26 24.09804 40.74505 35977 ft 431 kts 283°
2026-04-30 11:26 24.11551 40.68236 35975 ft 430 kts 283°
2026-04-30 11:27 24.13295 40.61967 35976 ft 431 kts 283°
2026-04-30 11:27 24.15031 40.55719 35985 ft 431 kts 283°
2026-04-30 11:28 24.18515 40.46569 36002 ft 438 kts 292°
2026-04-30 11:29 24.21378 40.40665 35977 ft 438 kts 292°
2026-04-30 11:29 24.25617 40.31826 35973 ft 437 kts 292°
2026-04-30 11:30 24.29364 40.23969 35986 ft 436 kts 292°
2026-04-30 11:31 24.32161 40.18095 35974 ft 436 kts 292°
2026-04-30 11:31 24.34968 40.12196 35974 ft 435 kts 292°
2026-04-30 11:32 24.37770 40.06297 35973 ft 434 kts 292°
2026-04-30 11:32 24.40553 40.00434 35986 ft 434 kts 292°
2026-04-30 11:33 24.44715 39.91647 35974 ft 433 kts 292°
2026-04-30 11:33 24.47494 39.85771 35969 ft 433 kts 292°
2026-04-30 11:34 24.50263 39.79910 35985 ft 433 kts 292°
2026-04-30 11:34 24.53162 39.74097 35957 ft 438 kts 298°
2026-04-30 11:35 24.57121 39.68945 35965 ft 446 kts 307°
2026-04-30 11:35 24.61965 39.64553 35986 ft 455 kts 316°
2026-04-30 11:36 24.67130 39.60511 35986 ft 454 kts 316°
2026-04-30 11:36 24.72252 39.56490 35980 ft 453 kts 316°
2026-04-30 11:37 24.77386 39.52408 35970 ft 453 kts 316°
2026-04-30 11:37 24.82453 39.48354 35966 ft 452 kts 316°
2026-04-30 11:38 24.87548 39.44269 35980 ft 452 kts 315°
2026-04-30 11:38 24.92597 39.40221 35976 ft 450 kts 315°
2026-04-30 11:39 24.97665 39.36154 35964 ft 450 kts 315°
2026-04-30 11:39 25.02732 39.32084 35978 ft 449 kts 315°
2026-04-30 11:40 25.07752 39.28046 35972 ft 448 kts 315°
2026-04-30 11:40 25.12800 39.23981 35963 ft 448 kts 315°
2026-04-30 11:41 25.17832 39.19921 35970 ft 446 kts 314°
2026-04-30 11:41 25.22262 39.15330 35973 ft 434 kts 304°
2026-04-30 11:42 25.25958 39.10116 35965 ft 427 kts 297°
2026-04-30 11:42 25.29175 39.04608 35957 ft 429 kts 296°
2026-04-30 11:43 25.32400 38.99029 35948 ft 431 kts 296°
2026-04-30 11:43 25.35656 38.93429 35951 ft 433 kts 296°
2026-04-30 11:44 25.38910 38.87851 35956 ft 434 kts 296°
2026-04-30 11:44 25.42182 38.82240 35914 ft 433 kts 296°
2026-04-30 11:45 25.45441 38.76652 35911 ft 431 kts 296°
2026-04-30 11:45 25.48685 38.71080 35924 ft 429 kts 296°
2026-04-30 11:46 25.51896 38.65554 35923 ft 428 kts 296°
2026-04-30 11:46 25.55114 38.60010 35914 ft 427 kts 296°
2026-04-30 11:47 25.58330 38.54461 35909 ft 427 kts 296°
2026-04-30 11:47 25.61519 38.48953 35910 ft 427 kts 296°
2026-04-30 11:48 25.64731 38.43400 35904 ft 427 kts 296°
2026-04-30 11:48 25.67920 38.37880 35939 ft 428 kts 296°
2026-04-30 11:49 25.71137 38.32303 35914 ft 429 kts 296°
2026-04-30 11:49 25.74339 38.26749 35906 ft 429 kts 296°
2026-04-30 11:50 25.77561 38.21152 35900 ft 429 kts 296°
2026-04-30 11:50 25.80775 38.15561 35905 ft 429 kts 296°
2026-04-30 11:51 25.83977 38.09988 35908 ft 427 kts 296°
2026-04-30 11:51 25.87160 38.04438 35901 ft 428 kts 296°
2026-04-30 11:52 25.90352 37.98863 35910 ft 428 kts 296°
2026-04-30 11:52 25.93546 37.93281 35931 ft 428 kts 296°
2026-04-30 11:53 25.96746 37.87683 35933 ft 428 kts 296°
2026-04-30 11:53 25.99441 37.81891 35929 ft 420 kts 286°
2026-04-30 11:54 26.01218 37.75768 35942 ft 416 kts 279°
2026-04-30 11:54 26.02150 37.69416 35939 ft 416 kts 276°
2026-04-30 11:55 26.02981 37.63023 35924 ft 419 kts 276°
2026-04-30 11:55 26.03837 37.56644 35938 ft 417 kts 276°
2026-04-30 11:56 26.04708 37.50248 35934 ft 417 kts 276°
2026-04-30 11:56 26.05559 37.43899 35935 ft 416 kts 276°
2026-04-30 11:57 26.06405 37.37519 35919 ft 416 kts 276°
2026-04-30 11:57 26.07245 37.31154 35917 ft 414 kts 276°
2026-04-30 11:58 26.08081 37.24851 35909 ft 414 kts 276°
2026-04-30 11:58 26.08914 37.18518 35908 ft 414 kts 276°
2026-04-30 11:59 26.09746 37.12170 35902 ft 414 kts 276°
2026-04-30 11:59 26.10576 37.05825 35901 ft 414 kts 276°
2026-04-30 12:00 26.11398 36.99509 35905 ft 415 kts 276°
2026-04-30 12:00 26.12225 36.93141 35910 ft 415 kts 276°
2026-04-30 12:01 26.13045 36.86804 35898 ft 415 kts 276°
2026-04-30 12:01 26.13867 36.80428 35892 ft 415 kts 276°
2026-04-30 12:02 26.14685 36.74058 35920 ft 415 kts 276°
2026-04-30 12:02 26.15496 36.67715 35897 ft 416 kts 276°
2026-04-30 12:03 26.16719 36.58123 35898 ft 416 kts 276°
2026-04-30 12:04 26.17897 36.51854 35914 ft 419 kts 288°
2026-04-30 12:04 26.20589 36.46038 35915 ft 426 kts 297°
2026-04-30 12:05 26.24515 36.40981 35914 ft 434 kts 307°
2026-04-30 12:05 26.28760 36.36210 35953 ft 434 kts 307°
2026-04-30 12:06 26.33004 36.31398 35916 ft 434 kts 307°
2026-04-30 12:06 26.37186 36.26597 35895 ft 433 kts 307°
2026-04-30 12:07 26.41362 36.21774 35901 ft 432 kts 307°
2026-04-30 12:07 26.45540 36.16940 35900 ft 431 kts 307°
2026-04-30 12:08 26.49692 36.12133 35899 ft 431 kts 307°
2026-04-30 12:08 26.53861 36.07302 35898 ft 430 kts 307°
2026-04-30 12:09 26.57988 36.02514 35902 ft 430 kts 307°
2026-04-30 12:09 26.62152 35.97677 35907 ft 431 kts 307°
2026-04-30 12:10 26.66291 35.92863 35933 ft 431 kts 307°
2026-04-30 12:10 26.70460 35.88011 35913 ft 431 kts 307°
2026-04-30 12:11 26.74603 35.83183 35905 ft 432 kts 307°
2026-04-30 12:11 26.78767 35.78325 35904 ft 431 kts 307°
2026-04-30 12:12 26.82923 35.73472 35908 ft 431 kts 307°
2026-04-30 12:12 26.87052 35.68645 35903 ft 431 kts 307°
2026-04-30 12:13 26.91213 35.63775 35910 ft 431 kts 307°
2026-04-30 12:13 26.95338 35.58941 35910 ft 431 kts 307°
2026-04-30 12:14 26.99485 35.54075 35908 ft 431 kts 307°
2026-04-30 12:14 27.03597 35.49245 35958 ft 430 kts 307°
2026-04-30 12:15 27.07752 35.44357 35921 ft 431 kts 307°
2026-04-30 12:15 27.11867 35.39513 35908 ft 431 kts 307°
2026-04-30 12:16 27.16009 35.34633 35902 ft 430 kts 307°
2026-04-30 12:16 27.20109 35.29794 35907 ft 429 kts 307°
2026-04-30 12:17 27.25603 35.23302 35910 ft 429 kts 307°
2026-04-30 12:17 27.30386 35.17642 35909 ft 429 kts 307°
2026-04-30 12:18 27.33807 35.13589 35889 ft 428 kts 307°
2026-04-30 12:18 27.38586 35.07921 35893 ft 428 kts 307°
2026-04-30 12:19 27.42006 35.03858 35901 ft 429 kts 307°
2026-04-30 12:19 27.46091 34.99001 35908 ft 430 kts 307°
2026-04-30 12:20 27.50203 34.94109 35890 ft 431 kts 307°
2026-04-30 12:20 27.54503 34.89358 35894 ft 433 kts 310°
2026-04-30 12:21 27.58932 34.84709 35893 ft 434 kts 310°
2026-04-30 12:21 27.63326 34.80089 35899 ft 434 kts 310°
2026-04-30 12:22 27.67752 34.75408 35898 ft 434 kts 310°
2026-04-30 12:22 27.72130 34.70765 35916 ft 434 kts 310°
2026-04-30 12:23 27.76533 34.66090 35930 ft 434 kts 310°
2026-04-30 12:23 27.80930 34.61416 35928 ft 434 kts 310°
2026-04-30 12:24 27.85313 34.56752 35930 ft 434 kts 310°
2026-04-30 12:24 27.89718 34.52057 35936 ft 434 kts 310°
2026-04-30 12:25 27.94099 34.47385 35939 ft 434 kts 311°
2026-04-30 12:25 27.98497 34.42691 35940 ft 434 kts 310°
2026-04-30 12:26 28.02498 34.37652 35942 ft 428 kts 304°
2026-04-30 12:26 28.06248 34.32422 35919 ft 428 kts 304°
2026-04-30 12:27 28.09996 34.27215 35920 ft 428 kts 304°
2026-04-30 12:27 28.13775 34.21973 35953 ft 429 kts 304°
2026-04-30 12:28 28.17567 34.16711 35951 ft 432 kts 304°
2026-04-30 12:28 28.21357 34.11451 35962 ft 434 kts 304°
2026-04-30 12:29 28.25187 34.06126 35976 ft 436 kts 304°
2026-04-30 12:29 28.29015 34.00796 35966 ft 437 kts 304°
2026-04-30 12:30 28.32855 33.95444 35974 ft 436 kts 304°
2026-04-30 12:30 28.36658 33.90131 36000 ft 434 kts 304°
2026-04-30 12:31 28.40481 33.84793 35971 ft 432 kts 304°
2026-04-30 12:31 28.44245 33.79526 35969 ft 430 kts 304°
2026-04-30 12:32 28.48014 33.74244 35952 ft 429 kts 304°
2026-04-30 12:32 28.51770 33.68973 35956 ft 428 kts 304°
2026-04-30 12:33 28.55490 33.63747 35966 ft 427 kts 304°
2026-04-30 12:33 28.59229 33.58478 35980 ft 428 kts 304°
2026-04-30 12:34 28.62987 33.53180 35971 ft 429 kts 304°
2026-04-30 12:34 28.66734 33.47901 35978 ft 430 kts 304°
2026-04-30 12:35 28.70473 33.42630 35966 ft 430 kts 304°
2026-04-30 12:35 28.74252 33.37296 35970 ft 431 kts 304°
2026-04-30 12:36 28.78013 33.31976 35963 ft 431 kts 304°
2026-04-30 12:36 28.81752 33.26684 35961 ft 432 kts 304°
2026-04-30 12:37 28.85529 33.21329 35957 ft 432 kts 304°
2026-04-30 12:37 28.89296 33.15981 35957 ft 431 kts 304°
2026-04-30 12:38 28.93039 33.10662 35958 ft 430 kts 304°
2026-04-30 12:38 28.96790 33.05324 35958 ft 430 kts 304°
2026-04-30 12:39 29.00505 33.00031 35955 ft 429 kts 304°
2026-04-30 12:39 29.04244 32.94696 35961 ft 429 kts 304°
2026-04-30 12:40 29.07958 32.89389 35967 ft 429 kts 304°
2026-04-30 12:40 29.11696 32.84041 35969 ft 429 kts 304°
2026-04-30 12:41 29.15399 32.78737 35974 ft 429 kts 304°
2026-04-30 12:41 29.19125 32.73392 35973 ft 429 kts 304°
2026-04-30 12:42 29.22867 32.68018 35978 ft 430 kts 304°
2026-04-30 12:42 29.26569 32.62695 35978 ft 430 kts 304°
2026-04-30 12:43 29.30281 32.57336 35988 ft 430 kts 304°
2026-04-30 12:43 29.33976 32.51951 36002 ft 429 kts 304°
2026-04-30 12:44 29.37669 32.46558 36004 ft 429 kts 304°
2026-04-30 12:44 29.41326 32.41212 35995 ft 428 kts 304°
2026-04-30 12:45 29.45014 32.35816 36003 ft 428 kts 304°
2026-04-30 12:45 29.48679 32.30449 36000 ft 429 kts 304°
2026-04-30 12:46 29.52361 32.25049 36014 ft 429 kts 304°
2026-04-30 12:46 29.56045 32.19640 36004 ft 430 kts 304°
2026-04-30 12:47 29.59732 32.14219 36020 ft 429 kts 304°
2026-04-30 12:47 29.63392 32.08830 36015 ft 429 kts 304°
2026-04-30 12:48 29.67064 32.03415 36026 ft 428 kts 304°
2026-04-30 12:48 29.70734 31.97997 36022 ft 428 kts 304°
2026-04-30 12:49 29.74371 31.92620 36027 ft 428 kts 304°
2026-04-30 12:49 29.78032 31.87201 36035 ft 428 kts 304°
2026-04-30 12:50 29.81594 31.81753 36029 ft 427 kts 303°
2026-04-30 12:50 29.85117 31.76241 36026 ft 426 kts 303°
2026-04-30 12:51 29.88621 31.70782 36018 ft 426 kts 303°
2026-04-30 12:51 29.92158 31.65281 36018 ft 425 kts 304°
2026-04-30 12:52 29.95666 31.59844 36004 ft 425 kts 304°
2026-04-30 12:52 29.99205 31.54356 35998 ft 425 kts 304°
2026-04-30 12:53 30.02723 31.48889 35997 ft 425 kts 304°
2026-04-30 12:53 30.06260 31.43385 35995 ft 426 kts 304°
2026-04-30 12:54 30.09945 31.38063 35995 ft 428 kts 309°
2026-04-30 12:54 30.14295 31.33293 35994 ft 430 kts 313°
2026-04-30 12:55 30.18688 31.28622 36005 ft 430 kts 313°
2026-04-30 12:55 30.23096 31.23904 36001 ft 430 kts 313°
2026-04-30 12:56 30.27452 31.19224 35974 ft 429 kts 313°
2026-04-30 12:56 30.31827 31.14514 35980 ft 428 kts 313°
2026-04-30 12:57 30.36155 31.09849 35994 ft 427 kts 313°
2026-04-30 12:57 30.40506 31.05152 35997 ft 426 kts 313°
2026-04-30 12:58 30.44827 31.00483 35980 ft 426 kts 313°
2026-04-30 12:58 30.49170 30.95784 36008 ft 426 kts 313°
2026-04-30 12:59 30.53517 30.91074 36004 ft 426 kts 313°
2026-04-30 12:59 30.57827 30.86400 35991 ft 426 kts 313°
2026-04-30 13:00 30.62158 30.81695 35994 ft 425 kts 313°
2026-04-30 13:00 30.66449 30.77029 35994 ft 425 kts 313°
2026-04-30 13:01 30.70759 30.72336 35994 ft 424 kts 313°
2026-04-30 13:01 30.75071 30.67634 35995 ft 424 kts 313°
2026-04-30 13:02 30.79380 30.62929 35995 ft 424 kts 313°
2026-04-30 13:02 30.83668 30.58242 36015 ft 425 kts 313°
2026-04-30 13:03 30.87985 30.53516 35999 ft 425 kts 313°
2026-04-30 13:03 30.92294 30.48792 36002 ft 425 kts 313°
2026-04-30 13:04 30.96585 30.44083 36007 ft 425 kts 313°
2026-04-30 13:04 31.00899 30.39343 36011 ft 425 kts 312°
2026-04-30 13:05 31.05181 30.34626 36018 ft 425 kts 311°
2026-04-30 13:06 31.09681 30.27241 36027 ft 418 kts 296°
2026-04-30 13:06 31.12101 30.19891 36028 ft 417 kts 287°
2026-04-30 13:07 31.13527 30.14502 36027 ft 418 kts 287°
2026-04-30 13:07 31.15281 30.08008 36029 ft 419 kts 287°
2026-04-30 13:08 31.17046 30.01545 36033 ft 420 kts 288°
2026-04-30 13:08 31.19315 29.95264 36053 ft 421 kts 296°
2026-04-30 13:09 31.22314 29.89369 36050 ft 423 kts 303°
2026-04-30 13:09 31.25774 29.83845 36047 ft 423 kts 303°
2026-04-30 13:10 31.29274 29.78300 36060 ft 424 kts 304°
2026-04-30 13:10 31.32742 29.72763 36036 ft 424 kts 303°
2026-04-30 13:11 31.36223 29.67173 36049 ft 423 kts 303°
2026-04-30 13:11 31.39664 29.61631 36039 ft 423 kts 303°
2026-04-30 13:12 31.43121 29.56057 36052 ft 422 kts 303°
2026-04-30 13:12 31.46576 29.50480 36034 ft 422 kts 303°
2026-04-30 13:13 31.51733 29.42138 36051 ft 422 kts 303°
2026-04-30 13:14 31.56874 29.33806 36034 ft 421 kts 303°
2026-04-30 13:14 31.62022 29.25410 36033 ft 421 kts 303°
2026-04-30 13:15 31.67129 29.17024 36033 ft 421 kts 303°
2026-04-30 13:16 31.70538 29.11419 36045 ft 421 kts 303°
2026-04-30 13:16 31.73926 29.05847 36040 ft 421 kts 303°
2026-04-30 13:17 31.79044 28.97455 36044 ft 420 kts 303°
2026-04-30 13:18 31.84134 28.89092 36048 ft 420 kts 303°
2026-04-30 13:18 31.89209 28.80731 36046 ft 419 kts 303°
2026-04-30 13:19 31.92602 28.75131 36044 ft 419 kts 303°
2026-04-30 13:19 31.95987 28.69535 36043 ft 419 kts 303°
2026-04-30 13:20 31.99375 28.63927 36046 ft 419 kts 303°
2026-04-30 13:20 32.02754 28.58324 36043 ft 419 kts 303°
2026-04-30 13:21 32.06118 28.52740 36044 ft 419 kts 303°
2026-04-30 13:22 32.11185 28.44311 36050 ft 419 kts 303°
2026-04-30 13:22 32.16229 28.35903 36043 ft 419 kts 303°
2026-04-30 13:23 32.21258 28.27502 36044 ft 418 kts 303°
2026-04-30 13:24 32.27963 28.16271 36046 ft 417 kts 303°
2026-04-30 13:25 32.34632 28.05068 36045 ft 417 kts 303°
2026-04-30 13:26 32.42955 27.91038 36043 ft 417 kts 303°
2026-04-30 13:28 32.51275 27.76961 36051 ft 417 kts 302°
2026-04-30 13:28 32.56266 27.68491 36042 ft 417 kts 302°
2026-04-30 13:29 32.62885 27.57228 36043 ft 416 kts 302°
2026-04-30 13:31 32.71148 27.43123 36043 ft 416 kts 302°
2026-04-30 13:32 32.79382 27.29015 36048 ft 417 kts 302°
2026-04-30 13:33 32.85984 27.17663 36043 ft 417 kts 302°
2026-04-30 13:34 32.90934 27.09128 36045 ft 417 kts 302°
2026-04-30 13:35 32.97511 26.97759 36043 ft 417 kts 302°
2026-04-30 13:36 33.04044 26.86384 36042 ft 416 kts 302°
2026-04-30 13:36 33.08931 26.77844 36043 ft 416 kts 301°
2026-04-30 13:37 33.13802 26.69314 36044 ft 416 kts 301°
2026-04-30 13:38 33.18688 26.60738 36046 ft 415 kts 301°
2026-04-30 13:39 33.25176 26.49320 36043 ft 416 kts 301°
2026-04-30 13:40 33.30032 26.40751 36059 ft 416 kts 301°
2026-04-30 13:40 33.33280 26.35008 36046 ft 416 kts 301°
2026-04-30 13:41 33.36513 26.29283 36043 ft 416 kts 301°
2026-04-30 13:41 33.39759 26.23528 36048 ft 416 kts 301°
2026-04-30 13:42 33.42975 26.17815 36044 ft 416 kts 301°
2026-04-30 13:42 33.47828 26.09176 36043 ft 415 kts 301°
2026-04-30 13:43 33.51041 26.03448 36043 ft 415 kts 301°
2026-04-30 13:43 33.54249 25.97718 36040 ft 415 kts 301°
2026-04-30 13:44 33.57471 25.91954 36037 ft 415 kts 301°
2026-04-30 13:44 33.60669 25.86224 36042 ft 415 kts 301°
2026-04-30 13:45 33.65480 25.77587 36039 ft 415 kts 301°
2026-04-30 13:46 33.68698 25.71799 36040 ft 416 kts 301°
2026-04-30 13:46 33.71892 25.66043 36041 ft 416 kts 301°
2026-04-30 13:47 33.75111 25.60234 36032 ft 416 kts 300°
2026-04-30 13:47 33.78309 25.54454 36036 ft 416 kts 300°
2026-04-30 13:48 33.81500 25.48678 36037 ft 416 kts 300°
2026-04-30 13:48 33.84706 25.42864 36035 ft 416 kts 300°
2026-04-30 13:49 33.87899 25.37067 36035 ft 416 kts 300°
2026-04-30 13:49 33.91091 25.31258 36038 ft 416 kts 300°
2026-04-30 13:50 33.94288 25.25434 36039 ft 417 kts 300°
2026-04-30 13:50 33.99085 25.16677 36037 ft 417 kts 300°
2026-04-30 13:51 34.02349 25.10919 36036 ft 418 kts 302°
2026-04-30 13:51 34.05796 25.05251 36040 ft 419 kts 303°
2026-04-30 13:52 34.09228 24.99619 36054 ft 419 kts 302°
2026-04-30 13:52 34.12666 24.93923 36044 ft 419 kts 302°
2026-04-30 13:53 34.16094 24.88205 36033 ft 420 kts 302°
2026-04-30 13:53 34.18937 24.83448 36032 ft 420 kts 302°
2026-04-30 13:54 34.22914 24.76785 36032 ft 420 kts 302°
2026-04-30 13:54 34.26327 24.71054 36032 ft 419 kts 302°
2026-04-30 13:55 34.29722 24.65348 36033 ft 419 kts 302°
2026-04-30 13:55 34.32564 24.60562 36033 ft 419 kts 302°
2026-04-30 13:56 34.36526 24.53882 36033 ft 419 kts 302°
2026-04-30 13:56 34.39357 24.49101 36033 ft 419 kts 302°
2026-04-30 13:57 34.42738 24.43382 36032 ft 419 kts 302°
2026-04-30 13:57 34.46143 24.37612 36055 ft 419 kts 302°
2026-04-30 13:58 34.51225 24.28987 36028 ft 419 kts 302°
2026-04-30 13:59 34.54598 24.23249 36031 ft 419 kts 302°
2026-04-30 13:59 34.57974 24.17497 36033 ft 419 kts 302°
2026-04-30 14:00 34.61363 24.11715 36029 ft 419 kts 302°
2026-04-30 14:00 34.66423 24.03062 36035 ft 419 kts 302°
2026-04-30 14:01 34.69785 23.97302 36036 ft 419 kts 302°
2026-04-30 14:01 34.73169 23.91495 36031 ft 419 kts 302°
2026-04-30 14:02 34.76522 23.85732 36034 ft 419 kts 302°
2026-04-30 14:02 34.79892 23.79929 36031 ft 419 kts 302°
2026-04-30 14:03 34.83257 23.74124 36055 ft 419 kts 302°
2026-04-30 14:03 34.86611 23.68332 36034 ft 420 kts 302°
2026-04-30 14:04 34.89981 23.62501 36029 ft 419 kts 302°
2026-04-30 14:04 34.93315 23.56724 36030 ft 419 kts 302°
2026-04-30 14:05 34.96666 23.50906 36034 ft 419 kts 302°
2026-04-30 14:05 34.99995 23.45118 36029 ft 418 kts 302°
2026-04-30 14:06 35.05015 23.36372 36028 ft 418 kts 302°
2026-04-30 14:07 35.10009 23.27648 36030 ft 418 kts 302°
2026-04-30 14:08 35.14993 23.18921 36024 ft 418 kts 302°
2026-04-30 14:08 35.19975 23.10176 36042 ft 419 kts 302°
2026-04-30 14:09 35.23311 23.04308 36028 ft 420 kts 301°
2026-04-30 14:10 35.28295 22.95523 36022 ft 419 kts 301°
2026-04-30 14:10 35.31629 22.89634 36012 ft 419 kts 301°
2026-04-30 14:11 35.34929 22.83795 36017 ft 419 kts 301°
2026-04-30 14:11 35.38247 22.77915 36018 ft 419 kts 301°
2026-04-30 14:12 35.41547 22.72057 36022 ft 419 kts 301°
2026-04-30 14:12 35.44862 22.66162 36016 ft 419 kts 301°
2026-04-30 14:13 35.48172 22.60266 36018 ft 419 kts 301°
2026-04-30 14:13 35.51462 22.54396 36020 ft 419 kts 301°
2026-04-30 14:14 35.54771 22.48482 36036 ft 419 kts 301°
2026-04-30 14:14 35.58073 22.42569 36024 ft 420 kts 301°
2026-04-30 14:15 35.61365 22.36666 36018 ft 420 kts 301°
2026-04-30 14:15 35.64650 22.30764 36019 ft 420 kts 301°
2026-04-30 14:16 35.67964 22.24801 36021 ft 420 kts 301°
2026-04-30 14:16 35.71243 22.18890 36019 ft 420 kts 301°
2026-04-30 14:17 35.74547 22.12925 36018 ft 420 kts 301°
2026-04-30 14:17 35.77841 22.06967 36020 ft 420 kts 301°
2026-04-30 14:18 35.81117 22.01032 36019 ft 420 kts 301°
2026-04-30 14:18 35.86025 21.92119 36019 ft 420 kts 301°
2026-04-30 14:19 35.90956 21.83144 36042 ft 420 kts 301°
2026-04-30 14:20 35.94221 21.77186 36032 ft 421 kts 301°
2026-04-30 14:20 35.99149 21.68175 36020 ft 422 kts 301°
2026-04-30 14:21 36.02426 21.62171 36022 ft 422 kts 301°
2026-04-30 14:22 36.07344 21.53140 36024 ft 422 kts 301°
2026-04-30 14:22 36.12251 21.44105 36021 ft 422 kts 301°
2026-04-30 14:23 36.18781 21.32045 36022 ft 422 kts 301°
2026-04-30 14:24 36.23685 21.22961 36025 ft 422 kts 300°
2026-04-30 14:25 36.30191 21.10870 36033 ft 424 kts 301°
2026-04-30 14:26 36.35108 21.01702 36028 ft 426 kts 300°
2026-04-30 14:27 36.40016 20.92530 36028 ft 426 kts 300°
2026-04-30 14:27 36.43300 20.86378 36027 ft 427 kts 300°
2026-04-30 14:28 36.48202 20.77175 36028 ft 427 kts 300°
2026-04-30 14:28 36.51460 20.71045 36029 ft 426 kts 300°
2026-04-30 14:29 36.57447 20.59749 36032 ft 425 kts 300°
2026-04-30 14:31 36.66098 20.43360 36036 ft 425 kts 300°
2026-04-30 14:31 36.70942 20.34149 36034 ft 426 kts 300°
2026-04-30 14:32 36.75808 20.24870 36033 ft 427 kts 300°
2026-04-30 14:33 36.79066 20.18644 36036 ft 427 kts 300°
2026-04-30 14:33 36.83921 20.09343 36036 ft 427 kts 300°
2026-04-30 14:34 36.87166 20.03113 36037 ft 427 kts 300°
2026-04-30 14:34 36.90388 19.96916 36038 ft 427 kts 300°
2026-04-30 14:35 36.95244 19.87553 36056 ft 427 kts 300°
2026-04-30 14:36 36.98461 19.81336 36047 ft 429 kts 300°
2026-04-30 14:36 37.01713 19.75039 36044 ft 431 kts 300°
2026-04-30 14:37 37.04963 19.68735 36038 ft 433 kts 300°
2026-04-30 14:37 37.08234 19.62378 36043 ft 434 kts 300°
2026-04-30 14:38 37.11505 19.56010 36040 ft 434 kts 300°
2026-04-30 14:38 37.14752 19.49675 36044 ft 434 kts 300°
2026-04-30 14:39 37.18016 19.43295 36043 ft 433 kts 300°
2026-04-30 14:39 37.21264 19.36935 36040 ft 433 kts 300°
2026-04-30 14:40 37.26128 19.27386 36042 ft 434 kts 300°
2026-04-30 14:40 37.29378 19.20992 36043 ft 434 kts 300°
2026-04-30 14:41 37.32609 19.14621 36049 ft 435 kts 300°
2026-04-30 14:41 37.35870 19.08178 36044 ft 437 kts 301°
2026-04-30 14:42 37.39140 19.01710 36045 ft 438 kts 301°
2026-04-30 14:42 37.42632 18.95480 36046 ft 439 kts 304°
2026-04-30 14:43 37.46328 18.89311 36044 ft 440 kts 305°
2026-04-30 14:43 37.50003 18.83167 36046 ft 440 kts 304°
2026-04-30 14:44 37.53666 18.77003 36042 ft 440 kts 305°
2026-04-30 14:44 37.57325 18.70818 36043 ft 439 kts 305°
2026-04-30 14:45 37.60959 18.64662 36042 ft 438 kts 305°
2026-04-30 14:45 37.63989 18.59519 36060 ft 438 kts 305°
2026-04-30 14:46 37.67629 18.53331 36049 ft 438 kts 305°
2026-04-30 14:46 37.71248 18.47169 36049 ft 438 kts 305°
2026-04-30 14:47 37.74872 18.40986 36041 ft 437 kts 305°
2026-04-30 14:47 37.78473 18.34830 36049 ft 437 kts 305°
2026-04-30 14:48 37.82085 18.28645 36049 ft 436 kts 305°
2026-04-30 14:48 37.85673 18.22490 36049 ft 436 kts 305°
2026-04-30 14:49 37.89285 18.16281 36049 ft 436 kts 305°
2026-04-30 14:49 37.92881 18.10087 36049 ft 436 kts 305°
2026-04-30 14:50 37.98262 18.00798 36054 ft 437 kts 305°
2026-04-30 14:51 38.03641 17.91486 36054 ft 437 kts 305°
2026-04-30 14:52 38.09010 17.82166 36056 ft 437 kts 305°
2026-04-30 14:52 38.14401 17.72781 36053 ft 437 kts 305°
2026-04-30 14:53 38.19743 17.63454 36056 ft 436 kts 305°
2026-04-30 14:54 38.26857 17.50992 36068 ft 436 kts 305°
2026-04-30 14:55 38.32192 17.41616 36068 ft 435 kts 305°
2026-04-30 14:56 38.39272 17.29129 36070 ft 434 kts 305°
2026-04-30 14:57 38.44557 17.19778 36069 ft 433 kts 305°
2026-04-30 14:58 38.51579 17.07311 36084 ft 433 kts 305°
2026-04-30 14:58 38.56842 16.97936 36096 ft 432 kts 305°
2026-04-30 15:00 38.65534 16.82394 36109 ft 430 kts 305°
2026-04-30 15:01 38.72464 16.69948 36095 ft 429 kts 304°
2026-04-30 15:01 38.77628 16.60641 36093 ft 428 kts 305°
2026-04-30 15:02 38.81072 16.54421 36091 ft 427 kts 305°
2026-04-30 15:03 38.89655 16.38864 36066 ft 427 kts 304°
2026-04-30 15:04 38.98224 16.23260 36043 ft 426 kts 305°
2026-04-30 15:06 39.06721 16.07707 36063 ft 426 kts 304°
2026-04-30 15:07 39.13573 15.95278 36082 ft 424 kts 307°
2026-04-30 15:08 39.20954 15.83408 36076 ft 424 kts 308°
2026-04-30 15:09 39.30136 15.68580 36073 ft 423 kts 308°
2026-04-30 15:10 39.37449 15.56688 36070 ft 423 kts 307°
2026-04-30 15:11 39.48412 15.38781 36067 ft 423 kts 307°
2026-04-30 15:13 39.57513 15.23838 36061 ft 423 kts 307°
2026-04-30 15:14 39.70216 15.02860 36054 ft 423 kts 307°
2026-04-30 15:17 39.86495 14.75773 36056 ft 422 kts 307°
2026-04-30 15:19 40.00871 14.51656 36058 ft 422 kts 306°